EW9528 Weather Reports


Display with metric or nautical units.
time (UTC)temp
F
wind
direction
speed
MPH
gust
MPH
rain 1hr
in
rain 24hr
in
rain mn
in
humidity
%
barometer
mb
20260510165230 64 186 2.0 4.0 0.00 0.00 0.00 31 1026.2
20260510163232 63 170 3.0 5.0 0.00 0.00 0.00 36 1026.1
20260510162234 63 178 4.0 6.0 0.00 0.00 0.00 34 1026.1
20260510161232 63 156 5.0 7.0 0.00 0.00 0.00 34 1026.1
20260510155331 63 180 2.0 4.0 0.00 0.00 0.00 37 1026.0
20260510154333 62 157 0.0 2.0 0.00 0.00 0.00 38 1026.1
20260510152432 61 123 2.0 4.0 0.00 0.00 0.00 38 1026.3
20260510150433 59 157 2.0 4.0 0.00 0.00 0.00 42 1026.3
20260510145531 59 157 1.0 2.0 0.00 0.00 0.00 42 1026.2
20260510144532 59 270 0.0 0.0 0.00 0.00 0.00 43 1026.2
20260510143532 58 315 0.0 0.0 0.00 0.00 0.00 43 1026.2
20260510142532 57 315 0.0 0.0 0.00 0.00 0.00 44 1026.1
20260510141532 56 315 0.0 0.0 0.00 0.00 0.00 45 1026.1
20260510140532 55 22 0.0 0.0 0.00 0.00 0.00 45 1026.0
20260510140448 55 22 0.0 0.0 0.00 0.00 0.00 44 1026.0
20260510135532 54 45 3.0 4.0 0.00 0.00 0.00 44 1025.8
20260510134533 51 270 0.0 0.0 0.00 0.00 0.00 47 1025.7
20260510133549 49 270 0.0 0.0 0.00 0.00 0.00 49 1025.6
20260510132631 47 270 0.0 0.0 0.00 0.00 0.00 49 1025.4
20260510131631 46 270 0.0 0.0 0.00 0.00 0.00 51 1025.2
20260510124733 43 247 0.0 0.0 0.00 0.00 0.00 59 1024.7
20260510123732 43 247 2.0 4.0 0.00 0.00 0.00 56 1024.5
20260510121748 44 247 0.0 0.0 0.00 0.00 0.00 54 1024.3
20260510120832 45 247 0.0 0.0 0.00 0.00 0.00 52 1024.3
20260510115831 46 247 0.0 0.0 0.00 0.00 0.00 47 1024.2
20260510115733 46 247 0.0 1.0 0.00 0.00 0.00 47 1024.2
20260510114732 46 247 1.0 1.0 0.00 0.00 0.00 44 1024.2
20260510113734 46 247 0.0 0.0 0.00 0.00 0.00 44 1024.1
20260510112731 46 247 1.0 1.0 0.00 0.00 0.00 43 1024.1
20260510111747 46 247 0.0 1.0 0.00 0.00 0.00 44 1024.0
20260510110733 45 247 0.0 0.0 0.00 0.00 0.00 45 1023.9
20260510105749 45 247 2.0 3.0 0.00 0.00 0.00 45 1024.0
20260510104833 45 247 0.0 0.0 0.00 0.00 0.00 46 1023.9
20260510102834 45 202 0.0 0.0 0.00 0.00 0.00 45 1023.9
20260510101931 45 202 0.0 0.0 0.00 0.00 0.00 47 1023.9
20260510101848 45 202 0.0 0.0 0.00 0.00 0.00 47 1023.9
20260510100834 45 202 0.0 0.0 0.00 0.00 0.00 46 1023.8
20260510100731 45 202 0.0 0.0 0.00 0.00 0.00 45 1023.8
20260510095732 46 202 0.0 0.0 0.00 0.00 0.00 44 1023.9
20260510093931 47 202 1.0 1.0 0.00 0.00 0.00 39 1023.9
20260510092932 48 292 0.0 0.0 0.00 0.00 0.00 38 1023.7
20260510092031 48 292 0.0 0.0 0.00 0.00 0.00 39 1023.6
20260510091051 47 247 0.0 0.0 0.00 0.00 0.00 41 1023.7
20260510090135 48 247 0.0 0.0 0.00 0.00 0.00 38 1023.4
20260510085232 48 247 0.0 0.0 0.00 0.00 0.00 37 1023.4
20260510084233 48 247 1.0 1.0 0.00 0.00 0.00 38 1023.4
20260510083234 48 247 2.0 2.0 0.00 0.00 0.00 38 1023.3
20260510082232 48 247 0.0 0.0 0.00 0.00 0.00 37 1023.2
20260510080233 49 247 0.0 0.0 0.00 0.00 0.00 35 1023.2
20260510075233 49 247 0.0 0.0 0.00 0.00 0.00 34 1023.2
20260510074233 50 247 0.0 1.0 0.00 0.00 0.00 34 1023.2
20260510074132 50 247 0.0 1.0 0.00 0.00 0.00 33 1023.2
20260510073149 51 247 0.0 0.0 0.00 0.00 0.00 31 1023.2
20260510072134 51 247 1.0 1.0 0.00 0.00 0.00 32 1023.2
20260510071132 52 247 0.0 0.0 0.00 0.00 0.00 31 1023.1
20260510065331 52 247 2.0 2.0 0.00 0.00 0.00 31 1022.8
20260510064333 52 247 0.0 0.0 0.00 0.00 0.00 30 1022.8
20260510063333 52 247 0.0 0.0 0.00 0.00 0.00 31 1022.6
20260510063233 52 247 0.0 0.0 0.00 0.00 0.00 31 1022.6
20260510062232 52 247 0.0 0.0 0.00 0.00 0.00 31 1022.5
20260510061235 53 270 0.0 0.0 0.00 0.00 0.00 30 1022.5
20260510060332 53 270 0.0 0.0 0.00 0.00 0.00 29 1022.4
20260510055331 53 270 0.0 0.0 0.00 0.00 0.00 31 1022.2
20260510054416 52 270 0.0 0.0 0.00 0.00 0.00 32 1022.2
20260510053515 52 270 0.0 0.0 0.00 0.00 0.00 31 1022.1
20260510052516 53 270 0.0 0.0 0.00 0.00 0.00 31 1022.1
20260510051515 54 270 0.0 0.0 0.00 0.00 0.00 28 1022.2
20260510050515 55 270 0.0 0.0 0.00 0.00 0.00 27 1022.1
20260510045614 55 270 0.0 0.0 0.00 0.00 0.00 26 1022.3
20260510035730 58 292 0.0 1.0 0.00 0.00 0.00 23 1021.6
20260510034815 58 247 2.0 3.0 0.00 0.00 0.00 23 1021.7
20260510033816 59 247 1.0 2.0 0.00 0.00 0.00 22 1021.6
20260510032816 61 247 3.0 4.0 0.00 0.00 0.00 21 1021.5
20260510030914 62 360 0.0 0.0 0.00 0.00 0.00 18 1021.3
20260510025916 63 360 0.0 1.0 0.00 0.00 0.00 18 1021.1
20260510024915 63 360 0.0 1.0 0.00 0.00 0.00 17 1020.9
20260510023915 64 360 1.0 1.0 0.00 0.00 0.00 17 1020.9
20260510022918 65 360 1.0 2.0 0.00 0.00 0.00 17 1020.8
20260510021114 68 360 2.0 2.0 0.00 0.00 0.00 16 1020.6
20260510020129 69 31 4.0 6.0 0.00 0.00 0.00 15 1020.6
20260510014115 71 22 4.0 6.0 0.00 0.00 0.00 14 1020.4
20260510013214 71 6 4.0 6.0 0.00 0.00 0.00 14 1020.6
20260510012217 71 27 5.0 7.0 0.00 0.00 0.00 14 1020.6
20260510011217 71 15 5.0 8.0 0.00 0.00 0.00 13 1020.6
20260510004215 72 24 8.0 13.0 0.00 0.00 0.00 13 1020.4
20260510003314 72 1 6.0 12.0 0.00 0.00 0.00 13 1020.4
20260510002315 72 16 8.0 12.0 0.00 0.00 0.00 13 1020.4
20260510001332 72 20 8.0 14.0 0.00 0.00 0.00 13 1020.4
20260510000418 72 17 5.0 9.0 0.00 0.00 0.00 12 1020.6
20260509235432 72 25 10.0 15.0 0.00 0.00 0.00 12 1020.3
20260509231514 72 24 11.0 16.0 0.00 0.00 0.00 15 1020.1
20260509230531 72 15 10.0 20.0 0.00 0.00 0.00 14 1020.4
20260509225617 72 24 13.0 18.0 0.00 0.00 0.00 15 1020.2
20260509224714 73 15 11.0 17.0 0.00 0.00 0.00 15 1020.3
20260509221714 73 2 4.0 8.0 0.00 0.00 0.00 16 1020.8
20260509220715 73 31 8.0 13.0 0.00 0.00 0.00 16 1020.8
20260509215731 73 14 8.0 14.0 0.00 0.00 0.00 17 1020.8
20260509214830 72 26 10.0 14.0 0.00 0.00 0.00 16 1020.8
20260509213815 72 26 12.0 16.0 0.00 0.00 0.00 16 1020.8
20260509212914 73 4 8.0 13.0 0.00 0.00 0.00 17 1020.9
20260509212815 73 6 10.0 18.0 0.00 0.00 0.00 18 1020.9
20260509210832 73 33 10.0 14.0 0.00 0.00 0.00 19 1021.1
20260509205817 73 357 3.0 5.0 0.00 0.00 0.00 18 1021.3
20260509203914 72 16 6.0 11.0 0.00 0.00 0.00 18 1021.2
20260509202916 72 23 10.0 18.0 0.00 0.00 0.00 19 1021.1
20260509201915 71 27 8.0 13.0 0.00 0.00 0.00 19 1021.4
20260509200916 71 25 10.0 15.0 0.00 0.00 0.00 19 1021.5
20260509200014 71 9 7.0 12.0 0.00 0.00 0.00 19 1021.6
20260509195015 70 22 6.0 9.0 0.00 0.00 0.00 19 1021.6
20260509194032 70 22 11.0 17.0 0.00 0.00 0.00 19 1021.6
20260509193115 70 28 13.0 20.0 0.00 0.00 0.00 18 1021.6
20260509192116 70 13 7.0 12.0 0.00 0.00 0.00 18 1021.9
20260509190115 70 5 7.0 12.0 0.00 0.00 0.00 19 1022.1
20260509185116 70 24 7.0 10.0 0.00 0.00 0.00 18 1022.1
20260509184115 70 9 5.0 9.0 0.00 0.00 0.00 20 1022.3
20260509183130 69 13 7.0 12.0 0.00 0.00 0.00 19 1022.1
20260509182215 69 26 11.0 19.0 0.00 0.00 0.00 20 1021.8
20260509181231 69 23 9.0 16.0 0.00 0.00 0.00 19 1022.1
20260509175216 69 30 7.0 14.0 0.00 0.00 0.00 20 1022.0
20260509174215 68 22 9.0 17.0 0.00 0.00 0.00 20 1022.2
20260509173232 68 23 9.0 13.0 0.00 0.00 0.00 20 1022.3
20260509171413 67 24 8.0 14.0 0.00 0.00 0.00 22 1022.4
20260509170416 66 26 11.0 14.0 0.00 0.00 0.00 22 1022.1
20260509165514 66 32 10.0 12.0 0.00 0.00 0.00 22 1022.2